Temp
-9 -8 -8 -8 -8 -8 -8 -9 -8 -8 -8 -8 -8 -8 -8 -8 -8 -8 -8 -8 -8 -8 -7 -8 -8 -8 -8 -8 -8 -8 -8 -8 -8
-9 -9 -9 -9 -8 -8 -8 -9 -9 -9 -9 -9 -9 -9 -9 -9 -8 -9 -8 -8 -8 -8 -8 -8 -7 -8 -8 -8 -8 -8 -8 -8 -8
-9 -9 -9 -9 -9 -9 -9 -9 -9 -9 -9 -9 -9 -9 -9 -9 -9 -9 -9 -8 -8 -8 -8 -8 -8 -8 -8 -8 -8 -8 -8 -8 -8
-9 -9 -9 -9 -9 -9 -9 -9 -9 -9 -9 -9 -9 -9 -9 -9 -9 -9 -9 -8 -8 -8 -8 -8 -8 -8 -8 -8 -8 -8 -8 -8 -9
-9 -9 -9 -9 -9 -9 -9 -9 -9 -9 -9 -9 -9 -9 -9 -9 -9 -9 -9 -9 -8 -8 -8 -8 -8 -8 -8 -8 -8 -8 -9 -9 -9
-10 -9 -9 -10 -10 -9 -9 -9 -9 -9 -9 -9 -9 -9 -9 -9 -9 -9 -9 -9 -9 -9 -8 -8 -8 -8 -8 -8 -8 -8 -9 -9 -9
-10 -10 -10 -10 -10 -10 -10 -10 -10 -10 -10 -10 -10 -10 -10 -9 -9 -9 -9 -9 -9 -9 -9 -8 -8 -9 -9 -9 -9 -9 -9 -9 -9
-10 -10 -10 -10 -10 -10 -10 -10 -10 -10 -10 -10 -10 -10 -10 -10 -9 -9 -9 -9 -9 -9 -9 -9 -9 -9 -10 -10 -10 -10 -10 -10 -10
-11 -10 -10 -10 -10 -10 -10 -10 -10 -10 -10 -10 -10 -10 -10 -9 -9 -9 -9 -9 -9 -9 -10 -10 -10 -10 -10 -10 -10 -10 -10 -10 -10
-11 -11 -11 -11 -11 -11 -10 -10 -10 -10 -10 -10 -10 -10 -10 -9 -9 -9 -10 -10 -10 -10 -11 -11 -11 -11 -11 -11 -11 -10 -10 -10 -10
-11 -11 -11 -11 -11 -11 -11 -11 -11 -10 -10 -10 -10 -10 -10 -10 -10 -10 -10 -11 -11 -11 -11 -11 -11 -11 -11 -11 -11 -11 -11 -11 -10
-11 -11 -11 -11 -11 -11 -11 -12 -11 -11 -10 -10 -10 -10 -10 -10 -10 -10 -11 -11 -11 -11 -11 -11 -11 -11 -11 -11 -11 -11 -11 -11 -11
-11 -11 -11 -11 -11 -11 -11 -11 -11 -10 -10 -10 -10 -10 -10 -10 -10 -11 -11 -12 -11 -11 -11 -11 -11 -11 -11 -11 -11 -11 -11 -11 -11
-11 -11 -10 -10 -10 -10 -10 -10 -10 -10 -10 -10 -10 -10 -10 -11 -11 -12 -12 -12 -12 -12 -12 -12 -12 -12 -12 -12 -12 -11 -11 -11 -11
-11 -10 -10 -10 -10 -10 -10 -10 -10 -10 -10 -10 -11 -11 -11 -12 -12 -12 -12 -12 -12 -12 -12 -12 -12 -12 -12 -12 -12 -12 -12 -12 -11
-10 -10 -10 -10 -10 -10 -10 -10 -10 -11 -11 -11 -12 -12 -12 -12 -12 -12 -12 -12 -13 -13 -12 -12 -12 -12 -12 -12 -12 -12 -12 -12 -12
-10 -10 -10 -10 -10 -10 -11 -11 -11 -11 -11 -12 -13 -13 -13 -13 -13 -13 -13 -13 -13 -13 -13 -13 -13 -13 -13 -13 -13 -13 -13 -13 -13
-10 -10 -10 -10 -11 -11 -11 -11 -12 -12 -13 -13 -13 -13 -13 -13 -13 -14 -14 -14 -13 -13 -14 -14 -14 -14 -14 -14 -14 -14 -14 -14 -14
-11 -11 -11 -11 -11 -11 -12 -13 -13 -13 -13 -13 -13 -13 -13 -13 -13 -14 -14 -14 -14 -14 -14 -15 -15 -15 -15 -15 -15 -14 -14 -14 -14
-11 -11 -11 -12 -12 -12 -13 -13 -14 -14 -14 -14 -14 -14 -14 -14 -14 -13 -14 -14 -15 -15 -15 -15 -15 -15 -15 -14 -14 -14 -14 -14 -14
Height
5833 5831 5831 5830 5830 5830 5830 5829 5829 5829 5828 5827 5826 5824 5823 5823 5822 5821 5820 5819 5818 5817 5816 5816 5816 5815 5815 5814 5814 5814 5813 5812 5812
5830 5830 5829 5828 5827 5827 5827 5826 5825 5825 5824 5822 5821 5820 5818 5817 5816 5815 5815 5814 5813 5813 5811 5811 5810 5810 5809 5809 5808 5807 5808 5807 5806
5827 5827 5826 5825 5825 5824 5823 5822 5821 5819 5818 5817 5816 5815 5813 5812 5811 5810 5809 5808 5808 5807 5807 5806 5804 5803 5803 5802 5801 5801 5800 5799 5799
5824 5823 5821 5820 5819 5819 5818 5817 5816 5815 5814 5812 5810 5809 5808 5806 5805 5804 5803 5803 5802 5801 5800 5799 5798 5796 5795 5794 5793 5792 5791 5790 5790
5820 5818 5817 5816 5815 5814 5813 5812 5811 5810 5809 5807 5805 5804 5802 5801 5799 5798 5797 5796 5795 5794 5792 5791 5789 5788 5786 5784 5783 5781 5781 5780 5779
5816 5815 5814 5813 5811 5810 5809 5807 5806 5805 5803 5802 5800 5798 5796 5795 5794 5792 5791 5789 5787 5786 5784 5782 5780 5778 5776 5774 5772 5771 5770 5769 5769
5812 5811 5811 5809 5807 5806 5804 5802 5801 5800 5798 5797 5795 5793 5791 5789 5787 5785 5783 5781 5779 5776 5774 5772 5770 5768 5766 5765 5764 5762 5761 5759 5759
5808 5807 5807 5805 5803 5802 5799 5798 5797 5795 5793 5791 5789 5787 5785 5783 5781 5779 5776 5773 5770 5768 5765 5763 5761 5759 5757 5756 5755 5753 5752 5751 5750
5803 5803 5801 5800 5798 5796 5795 5793 5792 5789 5787 5785 5783 5780 5778 5776 5773 5770 5767 5764 5761 5759 5756 5754 5752 5750 5748 5746 5745 5744 5744 5743 5742
5798 5798 5796 5794 5792 5790 5787 5785 5784 5782 5780 5777 5775 5772 5770 5767 5764 5760 5757 5755 5753 5751 5749 5747 5744 5742 5740 5737 5736 5735 5735 5733 5733
5794 5793 5791 5788 5785 5782 5779 5777 5776 5775 5772 5770 5768 5764 5761 5758 5755 5751 5748 5746 5744 5742 5740 5738 5736 5734 5731 5728 5726 5724 5724 5723 5722
5789 5787 5786 5782 5779 5775 5773 5770 5769 5768 5766 5763 5760 5756 5753 5750 5746 5743 5740 5737 5734 5732 5730 5727 5725 5723 5721 5719 5717 5715 5712 5711 5710
5783 5781 5778 5776 5773 5769 5766 5764 5763 5761 5758 5755 5751 5747 5744 5741 5737 5733 5730 5728 5725 5722 5719 5716 5714 5711 5709 5707 5704 5702 5700 5699 5696
5776 5774 5771 5769 5766 5763 5760 5758 5755 5753 5750 5746 5742 5737 5734 5730 5726 5723 5720 5717 5714 5711 5708 5705 5701 5698 5695 5693 5690 5688 5686 5683 5680
5769 5766 5763 5762 5759 5756 5752 5750 5747 5745 5741 5737 5732 5727 5724 5720 5716 5713 5709 5705 5702 5699 5695 5691 5687 5683 5679 5676 5673 5670 5667 5664 5662
5761 5758 5756 5754 5751 5747 5744 5740 5737 5733 5731 5727 5722 5717 5713 5710 5706 5701 5697 5692 5688 5684 5680 5676 5671 5667 5662 5658 5654 5650 5647 5644 5642
5753 5750 5749 5746 5742 5738 5734 5730 5726 5721 5718 5714 5712 5710 5705 5700 5695 5690 5686 5681 5676 5670 5665 5659 5654 5648 5643 5637 5632 5628 5623 5620 5616
5745 5742 5740 5736 5732 5728 5724 5720 5716 5711 5706 5702 5699 5695 5694 5691 5688 5681 5674 5669 5663 5656 5649 5642 5635 5629 5623 5618 5613 5607 5603 5598 5593
5736 5733 5730 5726 5723 5718 5713 5709 5704 5700 5695 5689 5684 5679 5674 5670 5671 5670 5662 5656 5649 5642 5635 5627 5620 5611 5604 5598 5591 5585 5579 5573 5567
5727 5724 5720 5717 5712 5707 5702 5697 5692 5688 5683 5678 5672 5666 5659 5652 5647 5646 5645 5640 5632 5626 5619 5610 5601 5592 5584 5576 5568 5560 5553 5545 5538
Wind_Speed
16 16 17 19 22 23 24 24 24 25 25 26 27 28 29 31 30 31 30 29 28 28 28 29 29 30 31 31 32 31 30 28 26
18 19 18 18 19 22 24 26 27 28 29 30 31 32 32 33 33 31 30 29 29 29 30 31 32 33 35 36 35 36 36 35 33
18 20 21 21 22 23 23 24 24 25 27 29 31 32 32 33 33 33 32 32 32 33 34 35 37 36 38 38 39 39 40 39 38
20 21 20 22 24 26 27 28 28 28 29 29 30 30 32 32 33 34 34 35 35 36 37 39 40 40 41 42 43 44 44 45 44
19 20 22 24 25 26 28 29 30 32 33 33 34 34 35 35 36 36 37 38 39 39 40 41 42 42 43 45 47 47 48 50 50
16 16 18 21 22 25 27 28 29 31 32 33 34 36 36 38 38 39 39 40 40 41 42 43 44 43 43 44 44 44 44 45 46
18 18 19 20 20 21 23 24 25 26 27 28 29 31 33 35 36 38 40 41 42 43 44 45 44 43 42 41 40 39 40 41 41
21 23 25 27 27 27 26 27 27 27 28 30 31 33 34 36 38 40 42 44 45 45 45 44 44 42 41 40 38 39 40 39 39
25 28 30 32 34 34 31 29 30 31 32 33 35 37 39 40 42 44 45 45 45 46 46 45 44 44 43 42 42 42 43 44 43
27 30 33 35 36 37 37 35 34 33 33 35 37 40 41 43 42 44 44 44 44 44 43 43 44 46 47 47 46 46 46 47 47
28 29 32 36 36 34 35 34 33 34 35 38 40 42 43 43 43 44 44 44 44 43 43 44 44 46 47 48 49 49 49 49 50
30 29 32 33 33 30 31 31 30 33 36 39 42 43 43 44 45 46 46 45 45 46 46 47 48 48 49 50 50 51 53 54 55
29 33 34 32 30 28 28 30 31 34 38 42 43 44 45 47 48 49 48 47 47 47 48 48 49 51 52 53 54 56 57 58 59
32 34 32 31 32 32 33 36 39 41 43 44 46 49 50 50 50 49 48 48 49 49 50 52 53 55 56 58 59 61 62 64 65
34 33 31 33 35 36 37 41 42 43 44 47 49 51 51 48 48 48 49 50 51 53 54 57 59 61 62 64 66 67 69 70 71
31 30 33 35 37 39 41 43 45 46 46 48 48 48 47 47 48 50 51 54 56 59 60 62 63 65 68 69 71 72 73 74 74
32 33 37 39 42 43 45 47 49 51 50 48 45 43 46 49 51 53 56 59 61 63 65 67 69 71 72 73 74 75 76 77 79
35 38 40 43 45 46 48 48 47 47 47 47 48 49 49 50 52 57 59 61 63 66 67 68 70 72 73 74 76 77 78 80 81
39 41 43 45 47 48 48 47 46 47 48 52 54 56 59 60 58 57 60 63 64 65 65 66 69 72 76 79 81 83 85 87 90
41 43 44 47 49 48 47 48 49 50 52 54 57 61 63 65 67 65 66 64 62 64 67 71 74 78 81 84 88 91 93 96 98
Wind_Direction
276 279 278 273 271 270 271 271 272 274 274 273 273 274 275 277 276 273 273 273 273 273 271 269 272 274 275 275 277 276 270 267 265
273 278 280 283 284 280 278 276 274 274 275 276 275 275 275 277 277 277 274 273 272 273 274 275 273 273 274 275 275 276 274 267 264
277 277 279 281 284 284 283 282 280 278 277 276 276 276 277 277 278 277 276 276 276 275 272 272 275 275 274 273 273 272 272 269 266
284 283 282 280 278 275 276 277 278 278 277 277 278 278 277 277 278 277 277 277 276 276 276 275 274 275 276 275 273 271 268 268 267
284 287 285 283 282 281 279 279 279 278 278 278 279 279 279 279 278 278 278 277 278 278 278 278 277 276 277 277 275 274 271 267 266
290 290 289 288 286 284 281 281 280 279 280 280 280 281 282 282 282 283 282 281 280 280 279 279 278 278 277 278 277 275 273 270 266
294 298 297 299 301 297 292 287 284 283 284 284 285 286 286 287 287 286 285 283 281 279 278 277 277 277 276 275 274 272 270 268 267
293 295 293 296 300 302 303 300 294 290 289 288 288 288 289 290 292 292 290 288 285 283 282 281 280 278 275 274 273 273 271 269 268
295 298 299 299 297 295 294 293 291 288 286 288 289 291 293 295 295 293 290 289 288 287 286 285 283 282 280 279 277 274 273 273 271
292 296 298 298 297 294 293 290 289 291 291 291 291 293 294 296 295 294 291 288 286 285 283 283 283 283 283 282 281 279 277 275 275
290 294 295 296 296 295 297 290 286 287 290 292 293 293 295 296 296 294 291 289 287 286 285 284 283 283 283 283 282 281 280 278 275
288 289 294 292 295 296 297 292 283 284 289 290 290 291 292 293 294 292 290 288 286 286 285 286 285 283 281 280 280 279 279 278 277
284 288 294 289 292 295 295 294 294 292 290 290 292 292 294 293 292 291 289 288 286 285 284 283 282 281 280 279 278 278 278 278 276
283 288 290 287 288 293 294 294 294 294 293 294 295 295 294 293 293 292 291 289 288 287 286 285 284 283 282 281 280 279 278 277 277
288 288 289 288 289 291 291 291 291 290 290 290 290 290 291 293 292 291 290 288 288 288 288 288 289 288 287 286 285 284 283 281 279
289 291 291 290 290 291 291 292 291 290 289 290 291 291 292 293 293 293 294 294 295 294 292 291 291 291 290 289 288 286 284 281 279
292 294 294 295 295 295 295 296 295 295 295 295 294 291 292 294 295 296 297 296 297 297 297 295 294 292 291 289 288 287 286 285 283
292 293 293 294 295 294 293 294 295 295 296 296 296 294 293 292 294 296 296 297 297 296 294 293 293 292 291 290 289 287 286 284 283
292 293 294 295 295 295 296 297 298 300 301 301 301 300 299 298 296 296 296 295 294 294 294 294 294 293 292 291 290 288 287 286 284
293 294 295 296 297 298 300 302 302 301 300 300 301 300 300 301 301 299 297 296 296 295 295 294 293 292 291 291 289 288 287 286 285